When you browse on this site, cookies collect data to enhance your experience and personalize the content and advertising you see.
Visit our Privacy Policy to learn more. By continuing to use the site, you agree to this use of cookies and data.
  • en Suisse
  • Liste des pays
  • À 7 jours
  • Température de l'eau
  • Carte satellitaire
  • Carte météo
  • Widgets météo
  • user-avatar
    Se connecter

    Météo par heure à Lubczyna

    Ce jour, 26 Avril, Vendredi

    Heure Température Précipitation Vent Pression Humidité
    00:00 +16°C° 0 mm 2 m/s 745 mmHg 82%
    01:00 +16°C° 0 mm 3 m/s 744 mmHg 81%
    02:00 +14°C° 0 mm 3 m/s 744 mmHg 82%
    03:00 +14°C° 0 mm 3 m/s 744 mmHg 82%
    04:00 +13°C° 0 mm 3 m/s 744 mmHg 82%
    05:00 +16°C° 0 mm 3 m/s 744 mmHg 78%
    06:00 +17°C° 0 mm 4 m/s 743 mmHg 74%
    07:00 +18°C° 0 mm 4 m/s 743 mmHg 70%
    08:00 +20°C° 0 mm 4 m/s 743 mmHg 64%
    09:00 +21°C° 0 mm 4 m/s 743 mmHg 57%
    10:00 +23°C° 0 mm 4 m/s 743 mmHg 51%
    11:00 +25°C° 0 mm 4 m/s 742 mmHg 48%
    12:00 +26°C° 0 mm 4 m/s 742 mmHg 45%
    13:00 +27°C° 0 mm 4 m/s 742 mmHg 42%
    14:00 +27°C° 0 mm 3 m/s 742 mmHg 43%
    15:00 +27°C° 0 mm 3 m/s 742 mmHg 44%
    16:00 +27°C° 0 mm 3 m/s 741 mmHg 45%
    17:00 +25°C° 0 mm 2 m/s 741 mmHg 50%
    18:00 +24°C° 0 mm 2 m/s 741 mmHg 56%
    19:00 +21°C° 0 mm 2 m/s 741 mmHg 62%
    20:00 +20°C° 0 mm 2 m/s 741 mmHg 64%
    21:00 +19°C° 0 mm 2 m/s 741 mmHg 67%
    22:00 +18°C° 0 mm 3 m/s 741 mmHg 69%
    23:00 +17°C° 0 mm 3 m/s 741 mmHg 76%

    Demain, 27 Avril, Samedi

    Heure Température Précipitation Vent Pression Humidité
    00:00 +17°C° 0 mm 4 m/s 741 mmHg 83%
    01:00 +15°C° 0 mm 4 m/s 741 mmHg 91%
    02:00 +15°C° 0.2 mm 4 m/s 741 mmHg 91%
    03:00 +15°C° 0.2 mm 5 m/s 742 mmHg 92%
    04:00 +15°C° 0.2 mm 5 m/s 742 mmHg 92%
    05:00 +14°C° 0.1 mm 5 m/s 742 mmHg 92%
    06:00 +14°C° 0.1 mm 5 m/s 743 mmHg 91%
    07:00 +13°C° 0.1 mm 6 m/s 743 mmHg 90%
    08:00 +13°C° 0.1 mm 6 m/s 743 mmHg 88%
    09:00 +11°C° 0.1 mm 6 m/s 744 mmHg 86%
    10:00 +10°C° 0.1 mm 6 m/s 744 mmHg 84%
    11:00 +11°C° 0 mm 6 m/s 744 mmHg 79%
    12:00 +13°C° 0 mm 6 m/s 745 mmHg 74%
    13:00 +14°C° 0 mm 5 m/s 745 mmHg 69%
    14:00 +14°C° 0 mm 5 m/s 745 mmHg 66%
    15:00 +14°C° 0 mm 4 m/s 745 mmHg 64%
    16:00 +15°C° 0 mm 4 m/s 745 mmHg 62%
    17:00 +14°C° 0 mm 3 m/s 745 mmHg 65%
    18:00 +13°C° 0 mm 3 m/s 745 mmHg 68%
    19:00 +13°C° 0 mm 2 m/s 745 mmHg 71%
    20:00 +12°C° 0 mm 2 m/s 745 mmHg 72%
    21:00 +12°C° 0 mm 1 m/s 745 mmHg 73%
    22:00 +11°C° 0 mm 1 m/s 746 mmHg 74%
    23:00 +11°C° 0 mm 1 m/s 746 mmHg 74%

    Après-demain, 28 Avril, Dimanche

    Heure Température Précipitation Vent Pression Humidité
    00:00 +11°C° 0 mm 1 m/s 746 mmHg 74%
    01:00 +10°C° 0 mm 1 m/s 746 mmHg 74%
    02:00 +9°C° 0 mm 2 m/s 746 mmHg 79%
    03:00 +9°C° 0 mm 3 m/s 746 mmHg 84%
    04:00 +8°C° 0 mm 4 m/s 747 mmHg 89%
    05:00 +8°C° 0.1 mm 5 m/s 747 mmHg 87%
    06:00 +8°C° 0.1 mm 5 m/s 747 mmHg 85%
    07:00 +9°C° 0.1 mm 6 m/s 748 mmHg 83%
    08:00 +10°C° 0 mm 6 m/s 748 mmHg 78%
    09:00 +11°C° 0 mm 6 m/s 748 mmHg 72%
    10:00 +13°C° 0 mm 6 m/s 748 mmHg 66%
    11:00 +13°C° 0 mm 6 m/s 748 mmHg 64%
    12:00 +14°C° 0 mm 5 m/s 748 mmHg 62%
    13:00 +14°C° 0 mm 5 m/s 748 mmHg 60%
    14:00 +14°C° 0 mm 5 m/s 748 mmHg 60%
    15:00 +14°C° 0 mm 5 m/s 748 mmHg 61%
    16:00 +13°C° 0 mm 5 m/s 748 mmHg 61%
    17:00 +13°C° 0 mm 4 m/s 748 mmHg 63%
    18:00 +12°C° 0 mm 4 m/s 748 mmHg 65%
    19:00 +11°C° 0 mm 3 m/s 749 mmHg 68%
    20:00 +11°C° 0 mm 3 m/s 749 mmHg 67%
    21:00 +11°C° 0 mm 4 m/s 749 mmHg 65%
    22:00 +11°C° 0 mm 4 m/s 749 mmHg 64%
    23:00 +10°C° 0.1 mm 4 m/s 749 mmHg 67%

    29 Avril, Lundi

    Heure Température Précipitation Vent Pression Humidité
    00:00 +10°C° 0.1 mm 4 m/s 749 mmHg 70%
    01:00 +10°C° 0.1 mm 4 m/s 749 mmHg 73%
    02:00 +8°C° 0.1 mm 4 m/s 749 mmHg 76%
    03:00 +8°C° 0.1 mm 4 m/s 748 mmHg 78%
    04:00 +8°C° 0.1 mm 4 m/s 748 mmHg 80%
    05:00 +8°C° 0 mm 4 m/s 748 mmHg 79%
    06:00 +8°C° 0 mm 5 m/s 748 mmHg 78%
    07:00 +8°C° 0 mm 5 m/s 748 mmHg 76%
    08:00 +8°C° 0.1 mm 5 m/s 748 mmHg 79%
    09:00 +8°C° 0.1 mm 6 m/s 748 mmHg 82%
    10:00 +8°C° 0.1 mm 6 m/s 747 mmHg 85%
    11:00 +8°C° 2.1 mm 6 m/s 747 mmHg 87%
    12:00 +8°C° 2.1 mm 6 m/s 747 mmHg 90%
    13:00 +8°C° 2.1 mm 6 m/s 747 mmHg 93%
    14:00 +8°C° 1.7 mm 6 m/s 746 mmHg 93%
    15:00 +8°C° 1.7 mm 5 m/s 746 mmHg 94%
    16:00 +8°C° 1.7 mm 5 m/s 746 mmHg 94%
    17:00 +8°C° 0.4 mm 4 m/s 746 mmHg 95%
    18:00 +10°C° 0.4 mm 3 m/s 746 mmHg 96%
    19:00 +10°C° 0.4 mm 3 m/s 746 mmHg 97%
    20:00 +10°C° 0.1 mm 3 m/s 746 mmHg 97%
    21:00 +10°C° 0.1 mm 2 m/s 746 mmHg 97%
    22:00 +10°C° 0.1 mm 2 m/s 746 mmHg 97%
    23:00 +10°C° 0 mm 2 m/s 746 mmHg 96%

    30 Avril, Mardi

    Heure Température Précipitation Vent Pression Humidité
    00:00 +9°C° 0 mm 2 m/s 746 mmHg 96%
    01:00 +9°C° 0 mm 3 m/s 746 mmHg 95%
    02:00 +8°C° 0 mm 3 m/s 746 mmHg 96%
    03:00 +8°C° 0 mm 3 m/s 746 mmHg 96%
    04:00 +8°C° 0 mm 3 m/s 746 mmHg 96%
    05:00 +9°C° 0.1 mm 3 m/s 746 mmHg 93%
    06:00 +10°C° 0.1 mm 3 m/s 746 mmHg 90%
    07:00 +11°C° 0.1 mm 4 m/s 747 mmHg 87%
    08:00 +12°C° 0.1 mm 4 m/s 747 mmHg 79%
    09:00 +13°C° 0.1 mm 4 m/s 747 mmHg 71%
    10:00 +15°C° 0.1 mm 4 m/s 747 mmHg 63%
    11:00 +15°C° 0 mm 4 m/s 746 mmHg 60%
    12:00 +15°C° 0 mm 4 m/s 746 mmHg 58%
    13:00 +17°C° 0 mm 4 m/s 746 mmHg 55%
    14:00 +15°C° 0 mm 4 m/s 746 mmHg 55%
    15:00 +15°C° 0 mm 4 m/s 746 mmHg 56%
    16:00 +15°C° 0 mm 4 m/s 745 mmHg 56%
    17:00 +14°C° 0 mm 3 m/s 746 mmHg 60%
    18:00 +12°C° 0 mm 3 m/s 746 mmHg 64%
    19:00 +12°C° 0 mm 2 m/s 746 mmHg 68%
    20:00 +12°C° 0 mm 2 m/s 746 mmHg 67%
    21:00 +11°C° 0 mm 3 m/s 746 mmHg 66%
    22:00 +11°C° 0 mm 3 m/s 746 mmHg 65%
    23:00 +10°C° 0 mm 3 m/s 746 mmHg 67%

    1 Mai, Mercredi

    Heure Température Précipitation Vent Pression Humidité
    00:00 +10°C° 0 mm 3 m/s 746 mmHg 69%
    01:00 +9°C° 0 mm 3 m/s 746 mmHg 71%
    02:00 +9°C° 0 mm 3 m/s 746 mmHg 71%
    03:00 +9°C° 0 mm 3 m/s 746 mmHg 71%
    04:00 +8°C° 0 mm 2 m/s 746 mmHg 71%
    05:00 +9°C° 0 mm 2 m/s 746 mmHg 71%
    06:00 +9°C° 0 mm 2 m/s 746 mmHg 70%
    07:00 +9°C° 0 mm 2 m/s 746 mmHg 69%
    08:00 +12°C° 0.1 mm 2 m/s 746 mmHg 63%
    09:00 +13°C° 0.1 mm 2 m/s 746 mmHg 56%
    10:00 +15°C° 0.1 mm 2 m/s 746 mmHg 50%
    11:00 +15°C° 0 mm 2 m/s 746 mmHg 49%
    12:00 +15°C° 0 mm 2 m/s 745 mmHg 48%
    13:00 +15°C° 0 mm 2 m/s 745 mmHg 48%
    14:00 +15°C° 0 mm 2 m/s 745 mmHg 48%
    15:00 +15°C° 0 mm 1 m/s 744 mmHg 49%
    16:00 +15°C° 0 mm 1 m/s 744 mmHg 49%
    17:00 +14°C° 0 mm 1 m/s 744 mmHg 54%
    18:00 +13°C° 0 mm 1 m/s 744 mmHg 60%
    19:00 +12°C° 0 mm 1 m/s 744 mmHg 65%
    20:00 +11°C° 0 mm 1 m/s 744 mmHg 65%
    21:00 +11°C° 0 mm 1 m/s 744 mmHg 65%
    22:00 +10°C° 0 mm 1 m/s 744 mmHg 66%
    23:00 +9°C° 0 mm 2 m/s 744 mmHg 68%
    Voir plus